Location: Sungai Bunut
(2.6333°N, 113.7333°E)
Time: 16:01:40
(UTC+00:00)

Vanguard 3 - Pass Details

Date: 04 December 2023
Orbit: 508 x 3239 km, 33.3° (Epoch: 21 February)

Event Time Altitude Azimuth Distance (km) Brightness Sun altitude
Rises 13:58:41 0° 268° (W) 6,754 12.3 -51.5°
Reaches altitude 10° 14:05:18 10° 281° (W) 5,301 11.5 -52.9°
Enters shadow 14:12:35 20° 308° (NW) 3,906 10.6 -54.4°
Maximum altitude 14:15:17 21° 324° (NW) 3,564 - -54.9°
Drops below altitude 10° 14:22:23 10° 10° (N) 3,621 - -56.3°
Sets 14:25:50 0° 27° (NNE) 4,185 - -57.0°
